Date,TemperatureHighF,TemperatureAvgF,TemperatureLowF,DewpointHighF,DewpointAvgF,DewpointLowF,HumidityHigh,HumidityAvg,HumidityLow,PressureMaxIn,PressureMinIn,WindSpeedMaxMPH,WindSpeedAvgMPH,GustSpeedMaxMPH,PrecipitationSumIn
2013-1-1,62.9,56.2,44.5,62.3,54.9,43.4,98,95,91,30.10,29.89,6,1,16,1.31
2013-1-2,44.5,40.3,36.7,43.4,38.0,33.1,96,91,86,30.25,30.07,4,1,11,0.00
2013-1-3,47.8,38.6,33.1,34.5,29.6,26.7,92,71,46,30.39,30.21,5,1,11,0.00
2013-1-4,54.4,42.5,33.0,34.3,30.0,26.4,84,64,36,30.46,30.33,4,1,10,0.00
2013-1-5,49.6,43.2,38.8,41.7,37.0,33.3,95,79,58,30.38,30.22,2,0,7,0.09
2013-1-6,54.1,45.1,40.9,45.0,41.6,38.1,97,88,67,30.30,30.20,4,1,12,0.36
2013-1-7,56.9,45.1,34.4,40.0,37.5,33.1,95,77,48,30.33,30.17,4,0,10,0.01
2013-1-8,61.6,53.9,43.4,58.4,50.8,38.6,98,89,77,30.20,30.06,2,0,8,1.06
2013-1-9,66.6,61.5,57.1,66.3,61.1,56.5,100,98,98,30.17,30.07,2,0,9,2.56
2013-1-10,67.9,67.0,63.9,67.4,66.4,62.9,99,98,95,30.14,30.04,4,1,12,0.89
2013-1-11,68.3,65.3,62.5,67.9,64.8,61.9,100,98,96,30.07,29.97,3,0,0,0.31
2013-1-12,74.3,69.7,67.3,69.0,67.5,65.3,99,93,81,30.01,29.86,7,1,14,0.01
2013-1-13,71.9,69.3,54.8,70.2,67.3,53.7,96,93,82,29.90,29.78,10,2,26,0.93
2013-1-14,42.4,39.0,33.5,41.7,38.1,32.5,98,97,95,30.18,30.05,14,2,11,1.36
2013-1-15,40.5,38.2,35.0,40.0,37.7,34.2,98,98,97,30.10,29.97,3,1,9,0.83
2013-1-16,35.0,34.0,32.9,34.2,33.2,32.1,98,97,95,30.15,30.00,6,1,13,0.26
2013-1-17,50.6,39.9,32.6,36.7,34.4,31.4,97,82,57,30.43,30.12,8,2,17,0.05
2013-1-18,57.0,44.0,33.3,36.9,32.7,27.2,95,68,33,30.53,30.38,4,1,10,0.00
2013-1-19,60.7,46.0,33.5,46.8,39.4,-99.9,97,81,55,30.38,30.22,4,0,3,0.00
2013-1-20,65.3,50.4,39.7,45.4,39.6,34.5,98,71,34,30.26,30.12,2,0,7,0.01
2013-1-21,63.7,51.7,41.6,47.2,42.0,36.5,90,71,48,30.21,30.12,4,0,9,0.00
2013-1-22,61.3,47.6,37.7,43.6,36.6,28.8,82,67,48,30.35,30.19,3,0,11,0.00
2013-1-23,69.0,54.7,43.0,49.9,45.1,39.8,95,73,43,30.36,30.24,3,0,10,0.00
2013-1-24,70.9,60.1,51.0,59.5,55.0,48.9,96,84,66,30.31,30.17,3,0,9,0.00
2013-1-25,74.0,62.2,52.6,59.6,55.7,51.6,97,81,54,30.21,30.08,6,1,22,0.01
2013-1-26,71.0,61.0,55.8,61.1,57.9,55.0,98,90,65,30.22,30.14,1,0,6,0.00
2013-1-27,71.3,60.5,53.4,60.3,56.4,52.8,99,88,61,30.25,30.15,4,0,11,0.01
2013-1-28,73.7,63.7,58.2,64.5,60.8,57.1,97,91,68,30.23,30.08,2,0,10,0.00
2013-1-29,77.7,70.6,64.6,68.6,66.4,63.7,97,87,67,30.08,29.70,8,2,18,0.00
2013-1-30,71.5,54.3,36.2,68.0,46.6,31.3,97,77,46,30.15,29.60,11,3,27,0.85
2013-1-31,58.7,44.7,31.4,35.5,30.5,25.6,94,62,30,30.31,30.14,5,0,10,0.00